| time (UTC) | temp C | wind direction | speed KPH | gust KPH | rain 1hr cm | rain 24hr cm | rain mn cm | humidity % | barometer mb |
| 20260906140032 | 19 | 150 | 1.6 | 6.4 | 0.00 | 0.00 | 0.00 | 99 | 1021.0 |
| 20260906135030 | 18 | 86 | 1.6 | 4.8 | 0.00 | 0.00 | 0.00 | 99 | 1020.9 |
| 20260906134027 | 18 | 60 | 0.0 | 3.2 | 0.00 | 0.00 | 0.00 | 99 | 1020.8 |
| 20260906133025 | 18 | 0.0 | 1.6 | 0.00 | 0.00 | 0.00 | 99 | 1020.8 | |
| 20260906132023 | 18 | 0.0 | 0.0 | 0.00 | 0.00 | 0.00 | 99 | 1020.8 | |
| 20260906131020 | 17 | 101 | 0.0 | 1.6 | 0.00 | 0.00 | 0.00 | 99 | 1020.6 |
| 20260906130018 | 17 | 64 | 0.0 | 1.6 | 0.00 | 0.00 | 0.00 | 99 | 1020.6 |
| 20260906125016 | 16 | 0.0 | 0.0 | 0.00 | 0.00 | 0.00 | 99 | 1020.3 | |
| 20260906124034 | 16 | 0.0 | 1.6 | 0.00 | 0.00 | 0.00 | 99 | 1020.0 | |
| 20260906123032 | 16 | 0.0 | 1.6 | 0.00 | 0.00 | 0.00 | 99 | 1019.9 | |
| 20260906122029 | 16 | 128 | 0.0 | 1.6 | 0.00 | 0.00 | 0.00 | 99 | 1020.0 |
| 20260906121028 | 16 | 0.0 | 0.0 | 0.00 | 0.00 | 0.00 | 99 | 1020.1 | |
| 20260906120025 | 16 | 0.0 | 0.0 | 0.00 | 0.00 | 0.00 | 99 | 1019.8 | |
| 20260906115023 | 16 | 0.0 | 0.0 | 0.00 | 0.00 | 0.00 | 99 | 1019.6 | |
| 20260906114042 | 16 | 0.0 | 0.0 | 0.00 | 0.00 | 0.00 | 99 | 1019.6 | |
| 20260906113038 | 16 | 0.0 | 0.0 | 0.00 | 0.00 | 0.00 | 99 | 1019.4 | |
| 20260906112036 | 16 | 212 | 0.0 | 3.2 | 0.00 | 0.00 | 0.00 | 99 | 1019.2 |
| 20260906111054 | 16 | 120 | 1.6 | 3.2 | 0.00 | 0.00 | 0.00 | 99 | 1019.1 |
| 20260906110032 | 16 | 0.0 | 1.6 | 0.00 | 0.00 | 0.00 | 99 | 1019.1 | |
| 20260906105049 | 17 | 59 | 0.0 | 1.6 | 0.00 | 0.00 | 0.00 | 99 | 1019.2 |
| 20260906104027 | 17 | 41 | 0.0 | 3.2 | 0.00 | 0.00 | 0.00 | 99 | 1019.3 |
| 20260906103025 | 17 | 63 | 1.6 | 1.6 | 0.00 | 0.00 | 0.00 | 99 | 1019.2 |
| 20260906102023 | 17 | 60 | 0.0 | 1.6 | 0.00 | 0.00 | 0.00 | 99 | 1019.1 |
| 20260906101022 | 16 | 40 | 0.0 | 3.2 | 0.00 | 0.00 | 0.00 | 99 | 1019.3 |
| 20260906100021 | 16 | 0.0 | 1.6 | 0.00 | 0.00 | 0.00 | 99 | 1019.0 | |
| 20260906095018 | 16 | 0.0 | 1.6 | 0.00 | 0.00 | 0.00 | 99 | 1018.9 | |
| 20260906094034 | 16 | 64 | 0.0 | 3.2 | 0.00 | 0.00 | 0.00 | 99 | 1019.1 |
| 20260906093052 | 16 | 42 | 0.0 | 3.2 | 0.00 | 0.00 | 0.00 | 99 | 1018.9 |
| 20260906092051 | 17 | 54 | 1.6 | 3.2 | 0.00 | 0.00 | 0.00 | 99 | 1018.9 |
| 20260906091029 | 17 | 45 | 0.0 | 3.2 | 0.00 | 0.00 | 0.00 | 99 | 1018.9 |
| 20260906090027 | 17 | 0.0 | 1.6 | 0.00 | 0.00 | 0.00 | 99 | 1018.8 | |
| 20260906085023 | 17 | 83 | 1.6 | 3.2 | 0.00 | 0.00 | 0.00 | 99 | 1018.8 |
| 20260906084021 | 17 | 41 | 1.6 | 3.2 | 0.00 | 0.00 | 0.00 | 99 | 1018.7 |
| 20260906083019 | 17 | 50 | 1.6 | 3.2 | 0.00 | 0.00 | 0.00 | 99 | 1018.7 |
| 20260906082016 | 17 | 45 | 1.6 | 3.2 | 0.00 | 0.00 | 0.00 | 99 | 1018.7 |
| 20260906081035 | 17 | 72 | 0.0 | 3.2 | 0.00 | 0.00 | 0.00 | 99 | 1018.8 |
| 20260906080033 | 16 | 0.0 | 0.0 | 0.00 | 0.00 | 0.00 | 99 | 1018.6 | |
| 20260906075030 | 16 | 105 | 0.0 | 1.6 | 0.00 | 0.00 | 0.00 | 99 | 1018.7 |
| 20260906074028 | 16 | 0.0 | 1.6 | 0.00 | 0.00 | 0.00 | 99 | 1018.6 | |
| 20260906073026 | 16 | 0.0 | 1.6 | 0.00 | 0.00 | 0.00 | 99 | 1018.6 | |
| 20260906072043 | 16 | 124 | 0.0 | 1.6 | 0.00 | 0.00 | 0.00 | 99 | 1018.4 |
| 20260906071021 | 16 | 146 | 0.0 | 3.2 | 0.00 | 0.00 | 0.00 | 99 | 1018.4 |
| 20260906070059 | 16 | 0.0 | 0.0 | 0.00 | 0.00 | 0.00 | 99 | 1018.5 | |
| 20260906065017 | 16 | 0.0 | 1.6 | 0.00 | 0.00 | 0.00 | 99 | 1018.4 | |
| 20260906064035 | 16 | 0.0 | 0.0 | 0.00 | 0.00 | 0.00 | 99 | 1018.7 | |
| 20260906063052 | 16 | 0.0 | 1.6 | 0.00 | 0.00 | 0.00 | 99 | 1018.7 | |
| 20260906062030 | 16 | 0.0 | 0.0 | 0.00 | 0.00 | 0.00 | 99 | 1018.6 | |
| 20260906061028 | 16 | 0.0 | 0.0 | 0.00 | 0.00 | 0.00 | 98 | 1018.5 | |
| 20260906060026 | 16 | 141 | 0.0 | 3.2 | 0.00 | 0.00 | 0.00 | 98 | 1018.4 |
| 20260906055023 | 16 | 0.0 | 0.0 | 0.00 | 0.00 | 0.00 | 98 | 1018.4 | |
| 20260906054041 | 16 | 0.0 | 1.6 | 0.00 | 0.00 | 0.00 | 98 | 1018.4 | |
| 20260906053019 | 16 | 0.0 | 0.0 | 0.00 | 0.00 | 0.00 | 98 | 1018.4 | |
| 20260906052017 | 16 | 0.0 | 1.6 | 0.00 | 0.00 | 0.00 | 98 | 1018.4 | |
| 20260906051035 | 16 | 0.0 | 1.6 | 0.00 | 0.00 | 0.00 | 98 | 1018.4 | |
| 20260906050033 | 16 | 135 | 0.0 | 3.2 | 0.00 | 0.00 | 0.00 | 98 | 1018.1 |
| 20260906045030 | 16 | 72 | 0.0 | 1.6 | 0.00 | 0.00 | 0.00 | 98 | 1018.1 |
| 20260906044028 | 16 | 0.0 | 0.0 | 0.00 | 0.00 | 0.00 | 98 | 1018.2 | |
| 20260906043026 | 16 | 74 | 0.0 | 1.6 | 0.00 | 0.00 | 0.00 | 98 | 1018.3 |
| 20260906042024 | 16 | 0.0 | 0.0 | 0.00 | 0.00 | 0.00 | 98 | 1018.1 | |
| 20260906041022 | 16 | 0.0 | 0.0 | 0.00 | 0.00 | 0.00 | 98 | 1018.0 | |
| 20260906040020 | 17 | 0.0 | 0.0 | 0.00 | 0.00 | 0.00 | 98 | 1017.9 | |
| 20260906035037 | 17 | 0.0 | 1.6 | 0.00 | 0.00 | 0.00 | 97 | 1018.0 | |
| 20260906034016 | 17 | 114 | 0.0 | 3.2 | 0.00 | 0.00 | 0.00 | 97 | 1017.9 |
| 20260906033053 | 17 | 0.0 | 0.0 | 0.00 | 0.00 | 0.00 | 97 | 1017.8 | |
| 20260906032031 | 17 | 30 | 0.0 | 1.6 | 0.00 | 0.00 | 0.00 | 97 | 1018.0 |
| 20260906031029 | 17 | 37 | 0.0 | 3.2 | 0.00 | 0.00 | 0.00 | 97 | 1017.9 |
| 20260906030027 | 17 | 25 | 0.0 | 1.6 | 0.00 | 0.00 | 0.00 | 97 | 1017.9 |
| 20260906025025 | 18 | 37 | 0.0 | 3.2 | 0.00 | 0.00 | 0.00 | 97 | 1017.9 |
| 20260906024023 | 18 | 50 | 0.0 | 1.6 | 0.00 | 0.00 | 0.00 | 96 | 1017.9 |
| 20260906023020 | 18 | 34 | 0.0 | 3.2 | 0.00 | 0.00 | 0.00 | 96 | 1017.8 |
| 20260906022019 | 18 | 33 | 1.6 | 3.2 | 0.00 | 0.00 | 0.00 | 96 | 1017.6 |
| 20260906021016 | 18 | 46 | 0.0 | 3.2 | 0.00 | 0.00 | 0.00 | 95 | 1017.8 |
| 20260906020034 | 18 | 0.0 | 1.6 | 0.00 | 0.00 | 0.00 | 94 | 1017.6 | |
| 20260906015032 | 19 | 54 | 0.0 | 1.6 | 0.00 | 0.00 | 0.00 | 94 | 1017.5 |
| 20260906014029 | 20 | 40 | 0.0 | 3.2 | 0.00 | 0.00 | 0.00 | 93 | 1017.4 |
| 20260906013027 | 20 | 0.0 | 1.6 | 0.00 | 0.00 | 0.00 | 93 | 1017.3 | |
| 20260906012025 | 20 | 29 | 1.6 | 3.2 | 0.00 | 0.00 | 0.00 | 92 | 1017.3 |
| 20260906011023 | 21 | 46 | 0.0 | 1.6 | 0.00 | 0.00 | 0.00 | 90 | 1017.5 |
| 20260906010040 | 21 | 12 | 0.0 | 1.6 | 0.00 | 0.00 | 0.00 | 90 | 1017.5 |
| 20260906005018 | 21 | 142 | 0.0 | 1.6 | 0.00 | 0.00 | 0.00 | 90 | 1017.6 |
| 20260906004016 | 21 | 225 | 0.0 | 1.6 | 0.00 | 0.00 | 0.00 | 90 | 1017.5 |
| 20260906003033 | 21 | 4 | 0.0 | 3.2 | 0.00 | 0.00 | 0.00 | 89 | 1017.3 |
| 20260906002031 | 21 | 39 | 0.0 | 3.2 | 0.00 | 0.00 | 0.00 | 89 | 1017.4 |
| 20260906001029 | 21 | 21 | 0.0 | 3.2 | 0.00 | 0.00 | 0.00 | 88 | 1017.5 |
| 20260906000027 | 21 | 17 | 1.6 | 3.2 | 0.00 | 0.00 | 0.00 | 89 | 1017.4 |
| 20260905235025 | 21 | 66 | 0.0 | 4.8 | 0.00 | 0.00 | 0.00 | 88 | 1017.4 |
| 20260905234022 | 21 | 7 | 1.6 | 3.2 | 0.00 | 0.00 | 0.00 | 88 | 1017.6 |
| 20260905233040 | 22 | 25 | 1.6 | 3.2 | 0.00 | 0.00 | 0.00 | 87 | 1017.5 |
| 20260905232018 | 22 | 13 | 0.0 | 3.2 | 0.00 | 0.00 | 0.00 | 87 | 1017.4 |
| 20260905231056 | 22 | 24 | 1.6 | 3.2 | 0.00 | 0.00 | 0.00 | 87 | 1017.3 |
| 20260905230034 | 22 | 16 | 1.6 | 4.8 | 0.00 | 0.00 | 0.00 | 86 | 1017.4 |
| 20260905225032 | 22 | 12 | 1.6 | 3.2 | 0.00 | 0.00 | 0.00 | 87 | 1017.3 |
| 20260905224030 | 22 | 47 | 0.0 | 3.2 | 0.00 | 0.00 | 0.00 | 86 | 1017.4 |
| 20260905223029 | 22 | 50 | 1.6 | 4.8 | 0.00 | 0.00 | 0.00 | 86 | 1017.1 |
| 20260905222025 | 22 | 36 | 1.6 | 4.8 | 0.00 | 0.00 | 0.00 | 87 | 1017.1 |
| 20260905221043 | 22 | 35 | 1.6 | 4.8 | 0.00 | 0.00 | 0.00 | 86 | 1016.9 |
| 20260905220021 | 22 | 15 | 3.2 | 4.8 | 0.00 | 0.00 | 0.00 | 87 | 1016.7 |
| 20260905215019 | 22 | 15 | 1.6 | 6.4 | 0.00 | 0.00 | 0.00 | 86 | 1016.7 |
| 20260905214057 | 22 | 18 | 3.2 | 9.7 | 0.00 | 0.00 | 0.00 | 86 | 1016.7 |
| 20260905213035 | 22 | 13 | 1.6 | 6.4 | 0.00 | 0.00 | 0.00 | 87 | 1016.7 |
| 20260905212032 | 22 | 16 | 1.6 | 4.8 | 0.00 | 0.00 | 0.00 | 87 | 1016.8 |
| 20260905211030 | 23 | 353 | 1.6 | 6.4 | 0.00 | 0.00 | 0.00 | 86 | 1016.8 |
| 20260905210028 | 23 | 20 | 1.6 | 6.4 | 0.00 | 0.00 | 0.00 | 85 | 1016.8 |
| 20260905205025 | 23 | 18 | 1.6 | 4.8 | 0.00 | 0.00 | 0.00 | 83 | 1016.8 |
| 20260905204023 | 24 | 17 | 1.6 | 4.8 | 0.00 | 0.00 | 0.00 | 82 | 1016.8 |
| 20260905203041 | 24 | 356 | 1.6 | 4.8 | 0.00 | 0.00 | 0.00 | 82 | 1016.6 |
| 20260905202020 | 24 | 3 | 1.6 | 3.2 | 0.00 | 0.00 | 0.00 | 81 | 1016.6 |
| 20260905201017 | 25 | 35 | 1.6 | 4.8 | 0.00 | 0.00 | 0.00 | 80 | 1016.6 |
| 20260905200035 | 25 | 12 | 1.6 | 4.8 | 0.00 | 0.00 | 0.00 | 80 | 1016.5 |
| 20260905195053 | 24 | 352 | 1.6 | 4.8 | 0.00 | 0.00 | 0.00 | 82 | 1016.7 |
| 20260905194030 | 24 | 14 | 3.2 | 6.4 | 0.00 | 0.00 | 0.00 | 81 | 1016.7 |
| 20260905193028 | 25 | 30 | 3.2 | 6.4 | 0.00 | 0.00 | 0.00 | 81 | 1016.7 |
| 20260905192046 | 24 | 353 | 0.0 | 3.2 | 0.00 | 0.00 | 0.00 | 83 | 1016.6 |
| 20260905191043 | 25 | 6 | 1.6 | 3.2 | 0.00 | 0.00 | 0.00 | 82 | 1016.7 |
| 20260905190021 | 25 | 348 | 1.6 | 8.0 | 0.00 | 0.00 | 0.00 | 83 | 1016.7 |
| 20260905185019 | 24 | 7 | 1.6 | 3.2 | 0.00 | 0.00 | 0.00 | 83 | 1016.6 |
| 20260905184017 | 25 | 12 | 3.2 | 6.4 | 0.00 | 0.00 | 0.00 | 81 | 1016.7 |
| 20260905183034 | 25 | 8 | 3.2 | 8.0 | 0.00 | 0.00 | 0.00 | 79 | 1016.6 |
| 20260905182033 | 25 | 29 | 1.6 | 6.4 | 0.00 | 0.00 | 0.00 | 80 | 1016.7 |
| 20260905181030 | 26 | 20 | 1.6 | 8.0 | 0.00 | 0.00 | 0.00 | 79 | 1016.6 |
| 20260905180048 | 25 | 344 | 3.2 | 6.4 | 0.00 | 0.00 | 0.00 | 79 | 1016.7 |
| 20260905175026 | 26 | 27 | 3.2 | 6.4 | 0.00 | 0.00 | 0.00 | 78 | 1016.6 |
| 20260905174023 | 26 | 349 | 1.6 | 3.2 | 0.00 | 0.00 | 0.00 | 77 | 1016.5 |
| 20260905173042 | 26 | 356 | 1.6 | 4.8 | 0.00 | 0.00 | 0.00 | 76 | 1016.7 |
| 20260905172019 | 25 | 32 | 3.2 | 6.4 | 0.00 | 0.00 | 0.00 | 77 | 1016.7 |
| 20260905171017 | 24 | 12 | 1.6 | 6.4 | 0.00 | 0.00 | 0.00 | 81 | 1016.7 |
| 20260905170055 | 24 | 359 | 1.6 | 6.4 | 0.00 | 0.00 | 0.00 | 82 | 1016.8 |
| 20260905165033 | 25 | 25 | 3.2 | 6.4 | 0.00 | 0.00 | 0.00 | 80 | 1016.8 |
| 20260905164030 | 25 | 22 | 3.2 | 12.9 | 0.00 | 0.00 | 0.00 | 79 | 1016.8 |
| 20260905163029 | 25 | 21 | 3.2 | 9.7 | 0.00 | 0.00 | 0.00 | 77 | 1016.7 |
| 20260905162046 | 25 | 15 | 1.6 | 4.8 | 0.00 | 0.00 | 0.00 | 78 | 1016.7 |
| 20260905161044 | 25 | 24 | 1.6 | 6.4 | 0.00 | 0.00 | 0.00 | 77 | 1016.7 |
| 20260905160022 | 25 | 338 | 3.2 | 6.4 | 0.00 | 0.00 | 0.00 | 78 | 1016.7 |
| 20260905155020 | 26 | 354 | 3.2 | 11.3 | 0.00 | 0.03 | 0.00 | 78 | 1016.7 |
| 20260905154018 | 26 | 359 | 3.2 | 4.8 | 0.00 | 0.03 | 0.00 | 77 | 1016.5 |
| 20260905153015 | 25 | 354 | 1.6 | 3.2 | 0.00 | 0.03 | 0.00 | 80 | 1016.6 |
| 20260905152033 | 23 | 30 | 1.6 | 4.8 | 0.00 | 0.05 | 0.00 | 84 | 1016.5 |
| 20260905151031 | 23 | 49 | 1.6 | 6.4 | 0.00 | 0.05 | 0.00 | 86 | 1016.5 |
| 20260905150029 | 23 | 25 | 1.6 | 4.8 | 0.00 | 0.08 | 0.00 | 87 | 1016.4 |
| 20260905145026 | 22 | 19 | 1.6 | 3.2 | 0.00 | 0.36 | 0.00 | 89 | 1016.2 |
| 20260905144024 | 22 | 24 | 3.2 | 8.0 | 0.00 | 0.36 | 0.00 | 91 | 1016.1 |
| 20260905143022 | 22 | 11 | 1.6 | 4.8 | 0.00 | 0.36 | 0.00 | 94 | 1015.9 |
| 20260905142019 | 21 | 15 | 1.6 | 3.2 | 0.00 | 0.61 | 0.00 | 98 | 1015.8 |
| 20260905141037 | 21 | 23 | 1.6 | 4.8 | 0.00 | 0.64 | 0.00 | 98 | 1015.8 |